Regional Weather Roundup
Issued by NWS Charleston, WV

Home | Current Version | Previous Version | Graphics & Text | Print | Product List | Glossary On
Versions: 1 2 3 4 5 6 7 8 9 10 11 12 13 14 15 16 17 18 19 20 21 22 23 24 25 26 27 28 29 30 31 32 33 34 35 36 37 38 39 40 41 42 43 44 45 46 47 48 49 50
000
ASUS41 KRLX 200510
RWRRLX
West Virginia Regional Weather Roundup
National Weather Service Charleston WV
1200 AM EST THU NOV 20 2014

Note: "fair" indicates few or no clouds below 12,000 feet with no
significant weather and/or obstructions to visibility.

WVZ003-200600-
Northern Panhandle of West Virginia

CITY           SKY/WX    TMP DP  RH WIND       PRES   REMARKS
WHEELING       CLOUDY    37  24  59 SW13G30   29.91R
$$

WVZ009-200600-
Northwest West Virginia

CITY           SKY/WX    TMP DP  RH WIND       PRES   REMARKS
PARKERSBURG    CLOUDY    41  24  51 W10       30.02R
$$

WVZ006-200600-
Western West Virginia

CITY           SKY/WX    TMP DP  RH WIND       PRES   REMARKS
HUNTINGTON     CLOUDY    41  26  55 SW5       30.04S
$$

WVZ015-200600-
West Central West Virginia

CITY           SKY/WX    TMP DP  RH WIND       PRES   REMARKS
CHARLESTON     CLOUDY    44  21  40 W14G21    30.03R
$$

WVZ022-031-200600-
North Central West Virginia

CITY           SKY/WX    TMP DP  RH WIND       PRES   REMARKS
CLARKSBURG     CLOUDY    41  20  43 W12       29.96R
MORGANTOWN     CLOUDY    41  24  51 VRB7      29.95R
$$

WVZ025-035-042-045-200600-
Southern West Virginia

CITY           SKY/WX    TMP DP  RH WIND       PRES   REMARKS
BECKLEY        CLOUDY    36  18  48 SW7G20    30.02S
LOGAN          CLOUDY    43  21  42 W12G21    30.04S
BLUEFIELD      CLEAR     36  18  48 W22G29    30.04S
LEWISBURG      CLOUDY    32  16  52 S5        30.03S
$$

WVZ047-200600-
Northern Mountains of West Virginia

CITY           SKY/WX    TMP DP  RH WIND       PRES   REMARKS
ELKINS         CLOUDY    40  21  46 W10G23    29.96R
$$

WVZ052-200600-
Eastern Panhandle of West Virginia

CITY           SKY/WX    TMP DP  RH WIND       PRES   REMARKS
MARTINSBURG    CLOUDY    35  11  36 S8        29.96F
PETERSBURG     CLOUDY    47  15  28 SW18G31   29.91F
$$


USA.gov is the U.S. government's official web portal to all federal, state and local government web resources and services.